| time (UTC) | temp C | wind direction | speed KPH | gust KPH | rain 1hr cm | rain 24hr cm | rain mn cm | humidity % | barometer mb |
| 20260504050219 | 18 | 0 | 0.0 | 0.0 | 0.00 | 0.00 | 0.00 | 59 | 1009.4 |
| 20260504045404 | 18 | 0 | 0.0 | 0.0 | 0.00 | 0.00 | 0.00 | 57 | 1009.2 |
| 20260504044504 | 18 | 0 | 0.0 | 0.0 | 0.00 | 0.00 | 0.00 | 58 | 1009.4 |
| 20260504043608 | 19 | 0 | 0.0 | 0.0 | 0.00 | 0.00 | 0.00 | 56 | 1009.5 |
| 20260504042704 | 19 | 0 | 0.0 | 0.0 | 0.00 | 0.00 | 0.00 | 56 | 1009.5 |
| 20260504041803 | 19 | 0 | 0.0 | 0.0 | 0.00 | 0.00 | 0.00 | 57 | 1009.5 |
| 20260504040908 | 18 | 0 | 0.0 | 0.0 | 0.00 | 0.00 | 0.00 | 57 | 1009.4 |
| 20260504040004 | 18 | 0 | 0.0 | 0.0 | 0.00 | 0.00 | 0.00 | 59 | 1009.5 |
| 20260504035408 | 18 | 0 | 0.0 | 0.0 | 0.00 | 0.00 | 0.00 | 59 | 1009.5 |
| 20260504034504 | 18 | 0 | 0.0 | 0.0 | 0.00 | 0.00 | 0.00 | 58 | 1009.5 |
| 20260504033605 | 18 | 0 | 0.0 | 0.0 | 0.00 | 0.00 | 0.00 | 57 | 1009.7 |
| 20260504032708 | 18 | 0 | 0.0 | 0.0 | 0.00 | 0.00 | 0.00 | 56 | 1009.7 |
| 20260504031803 | 18 | 0 | 0.0 | 0.0 | 0.00 | 0.00 | 0.00 | 54 | 1009.9 |
| 20260504030904 | 20 | 0 | 0.0 | 0.0 | 0.00 | 0.00 | 0.00 | 53 | 1009.9 |
| 20260504030004 | 19 | 0 | 0.0 | 0.0 | 0.00 | 0.00 | 0.00 | 55 | 1009.9 |
| 20260504025408 | 19 | 0 | 0.0 | 0.0 | 0.00 | 0.00 | 0.00 | 55 | 1010.0 |
| 20260504024503 | 19 | 0 | 0.0 | 0.0 | 0.00 | 0.00 | 0.00 | 56 | 1010.1 |
| 20260504023604 | 18 | 0 | 0.0 | 0.0 | 0.00 | 0.00 | 0.00 | 57 | 1010.2 |
| 20260504022704 | 18 | 0 | 0.0 | 0.0 | 0.00 | 0.00 | 0.00 | 57 | 1010.5 |
| 20260504021804 | 18 | 0 | 0.0 | 0.0 | 0.00 | 0.00 | 0.00 | 57 | 1010.6 |
| 20260504020904 | 18 | 0 | 0.0 | 0.0 | 0.00 | 0.00 | 0.00 | 58 | 1010.5 |
| 20260504020008 | 18 | 0 | 0.0 | 0.0 | 0.00 | 0.00 | 0.00 | 61 | 1010.8 |
| 20260504015403 | 18 | 0 | 0.0 | 0.0 | 0.00 | 0.00 | 0.00 | 62 | 1010.9 |
| 20260504014503 | 17 | 0 | 0.0 | 0.0 | 0.00 | 0.03 | 0.00 | 63 | 1011.0 |
| 20260504013603 | 17 | 0 | 0.0 | 0.0 | 0.00 | 0.08 | 0.00 | 62 | 1011.0 |
| 20260504012703 | 17 | 0 | 0.0 | 0.0 | 0.00 | 0.10 | 0.00 | 63 | 1011.1 |
| 20260504011810 | 17 | 0 | 0.0 | 0.0 | 0.00 | 0.13 | 0.00 | 64 | 1011.2 |
| 20260504010904 | 17 | 0 | 0.0 | 0.0 | 0.00 | 0.20 | 0.00 | 64 | 1011.0 |
| 20260504010009 | 17 | 0 | 0.0 | 0.0 | 0.00 | 0.25 | 0.00 | 63 | 1011.1 |
| 20260504005404 | 17 | 0 | 0.0 | 0.0 | 0.00 | 0.28 | 0.00 | 63 | 1011.0 |
| 20260504004509 | 17 | 0 | 0.0 | 0.0 | 0.00 | 0.33 | 0.00 | 67 | 1011.1 |
| 20260504003604 | 17 | 0 | 0.0 | 0.0 | 0.00 | 0.36 | 0.00 | 65 | 1011.1 |
| 20260504002708 | 17 | 0 | 0.0 | 0.0 | 0.00 | 0.38 | 0.00 | 66 | 1011.2 |
| 20260504001808 | 17 | 0 | 0.0 | 0.0 | 0.00 | 0.43 | 0.00 | 66 | 1011.1 |
| 20260504001124 | 17 | 0 | 0.0 | 0.0 | 0.00 | 0.51 | 0.00 | 67 | 1011.1 |
| 20260504000003 | 16 | 0 | 0.0 | 0.0 | 0.00 | 0.64 | 0.00 | 68 | 1011.1 |
| 20260503235404 | 16 | 0 | 0.0 | 0.0 | 0.00 | 0.69 | 0.00 | 68 | 1011.1 |
| 20260503234508 | 16 | 0 | 0.0 | 0.0 | 0.00 | 0.69 | 0.00 | 68 | 1011.2 |
| 20260503233603 | 16 | 0 | 0.0 | 0.0 | 0.00 | 0.71 | 0.00 | 68 | 1011.4 |
| 20260503232703 | 16 | 0 | 0.0 | 0.0 | 0.00 | 0.76 | 0.00 | 68 | 1011.4 |
| 20260503232014 | 16 | 0 | 0.0 | 0.0 | 0.00 | 0.76 | 0.00 | 69 | 1011.4 |
| 20260503230903 | 15 | 0 | 0.0 | 0.0 | 0.00 | 0.76 | 0.00 | 69 | 1011.5 |
| 20260503230008 | 15 | 0 | 0.0 | 0.0 | 0.00 | 0.76 | 0.00 | 69 | 1011.6 |
| 20260503225404 | 15 | 0 | 0.0 | 0.0 | 0.00 | 0.76 | 0.00 | 70 | 1011.6 |
| 20260503224513 | 15 | 0 | 0.0 | 0.0 | 0.00 | 0.76 | 0.00 | 70 | 1011.4 |
| 20260503223603 | 14 | 0 | 0.0 | 0.0 | 0.00 | 0.76 | 0.00 | 71 | 1011.5 |
| 20260503222918 | 14 | 0 | 0.0 | 0.0 | 0.00 | 0.76 | 0.00 | 71 | 1011.5 |
| 20260503221803 | 14 | 0 | 0.0 | 0.0 | 0.00 | 0.76 | 0.00 | 72 | 1011.4 |
| 20260503220904 | 13 | 0 | 0.0 | 0.0 | 0.00 | 0.76 | 0.00 | 73 | 1011.3 |
| 20260503220214 | 13 | 0 | 0.0 | 0.0 | 0.00 | 0.76 | 0.00 | 74 | 1011.2 |
| 20260503215408 | 13 | 0 | 0.0 | 0.0 | 0.00 | 0.76 | 0.00 | 75 | 1011.3 |
| 20260503214503 | 13 | 0 | 0.0 | 0.0 | 0.00 | 0.76 | 0.00 | 75 | 1011.4 |
| 20260503213603 | 13 | 0 | 0.0 | 0.0 | 0.00 | 0.76 | 0.00 | 75 | 1011.3 |
| 20260503212703 | 13 | 0 | 0.0 | 0.0 | 0.00 | 0.76 | 0.00 | 74 | 1011.3 |
| 20260503211803 | 13 | 0 | 0.0 | 0.0 | 0.00 | 0.76 | 0.00 | 74 | 1011.3 |
| 20260503210904 | 13 | 0 | 0.0 | 0.0 | 0.00 | 0.76 | 0.00 | 75 | 1011.2 |
| 20260503210004 | 13 | 0 | 0.0 | 0.0 | 0.00 | 0.76 | 0.00 | 76 | 1011.2 |
| 20260503205403 | 13 | 0 | 0.0 | 0.0 | 0.00 | 0.76 | 0.00 | 77 | 1011.1 |
| 20260503204504 | 12 | 0 | 0.0 | 0.0 | 0.00 | 0.76 | 0.00 | 77 | 1011.0 |
| 20260503203605 | 12 | 0 | 0.0 | 0.0 | 0.00 | 0.76 | 0.00 | 78 | 1011.1 |
| 20260503202705 | 12 | 0 | 0.0 | 0.0 | 0.00 | 0.76 | 0.00 | 78 | 1011.0 |
| 20260503202015 | 12 | 0 | 0.0 | 0.0 | 0.00 | 0.76 | 0.00 | 78 | 1011.0 |
| 20260503200905 | 12 | 0 | 0.0 | 0.0 | 0.00 | 0.76 | 0.00 | 79 | 1010.9 |
| 20260503200004 | 12 | 0 | 0.0 | 0.0 | 0.00 | 0.76 | 0.00 | 79 | 1010.9 |
| 20260503195403 | 12 | 0 | 0.0 | 0.0 | 0.00 | 0.76 | 0.00 | 79 | 1010.9 |
| 20260503194504 | 12 | 0 | 0.0 | 0.0 | 0.00 | 0.76 | 0.00 | 80 | 1011.0 |
| 20260503193605 | 12 | 0 | 0.0 | 0.0 | 0.00 | 0.76 | 0.00 | 81 | 1011.1 |
| 20260503192705 | 12 | 0 | 0.0 | 0.0 | 0.00 | 0.76 | 0.00 | 81 | 1011.1 |
| 20260503191805 | 12 | 0 | 0.0 | 0.0 | 0.00 | 0.76 | 0.00 | 81 | 1011.2 |
| 20260503190905 | 12 | 0 | 0.0 | 0.0 | 0.00 | 0.76 | 0.00 | 82 | 1011.3 |
| 20260503190008 | 12 | 0 | 0.0 | 0.0 | 0.00 | 0.76 | 0.00 | 82 | 1011.4 |
| 20260503185404 | 12 | 0 | 0.0 | 0.0 | 0.00 | 0.76 | 0.00 | 82 | 1011.4 |
| 20260503184505 | 12 | 0 | 0.0 | 0.0 | 0.00 | 0.76 | 0.00 | 82 | 1011.5 |
| 20260503183813 | 12 | 0 | 0.0 | 0.0 | 0.00 | 0.76 | 0.00 | 82 | 1011.5 |
| 20260503182704 | 12 | 0 | 0.0 | 0.0 | 0.00 | 0.76 | 0.00 | 82 | 1011.6 |
| 20260503181803 | 12 | 0 | 0.0 | 0.0 | 0.00 | 0.76 | 0.00 | 83 | 1011.7 |
| 20260503180904 | 12 | 0 | 0.0 | 0.0 | 0.00 | 0.76 | 0.00 | 83 | 1011.6 |
| 20260503180004 | 12 | 0 | 0.0 | 0.0 | 0.00 | 0.76 | 0.00 | 83 | 1011.7 |
| 20260503175403 | 12 | 0 | 0.0 | 0.0 | 0.00 | 0.76 | 0.00 | 83 | 1011.8 |
| 20260503174716 | 12 | 0 | 0.0 | 0.0 | 0.00 | 0.76 | 0.00 | 83 | 1011.8 |
| 20260503173605 | 12 | 0 | 0.0 | 0.0 | 0.00 | 0.76 | 0.00 | 82 | 1011.9 |
| 20260503172705 | 12 | 0 | 0.0 | 0.0 | 0.00 | 0.76 | 0.00 | 82 | 1012.0 |
| 20260503171803 | 12 | 0 | 0.0 | 0.0 | 0.00 | 0.76 | 0.00 | 82 | 1012.0 |
| 20260503170903 | 12 | 0 | 0.0 | 0.0 | 0.00 | 0.76 | 0.00 | 82 | 1012.0 |
| 20260503150904 | 14 | 0 | 0.0 | 0.0 | 0.00 | 0.76 | 0.00 | 79 | 1012.2 |
| 20260503150216 | 14 | 0 | 0.0 | 0.0 | 0.00 | 0.76 | 0.00 | 79 | 1012.1 |
| 20260503130904 | 15 | 0 | 0.0 | 0.0 | 0.00 | 0.76 | 0.76 | 79 | 1012.7 |
| 20260503120215 | 14 | 0 | 0.0 | 0.0 | 0.00 | 0.76 | 0.76 | 79 | 1012.6 |
| 20260503080904 | 16 | 0 | 0.0 | 0.0 | 0.00 | 0.76 | 0.76 | 64 | 1011.1 |
| 20260503072703 | 17 | 0 | 0.0 | 0.0 | 0.00 | 0.76 | 0.76 | 59 | 1011.0 |
| 20260503071809 | 18 | 0 | 0.0 | 0.0 | 0.00 | 0.76 | 0.76 | 58 | 1010.9 |
| 20260503070913 | 18 | 0 | 0.0 | 0.0 | 0.00 | 0.76 | 0.76 | 57 | 1010.8 |
| 20260503070219 | 18 | 0 | 0.0 | 0.0 | 0.00 | 0.76 | 0.76 | 58 | 1010.8 |
| 20260503054713 | 17 | 0 | 0.0 | 0.0 | 0.00 | 0.76 | 0.76 | 75 | 1010.3 |
| 20260503053815 | 17 | 0 | 0.0 | 0.0 | 0.00 | 0.76 | 0.76 | 76 | 1010.4 |
| 20260503052708 | 17 | 0 | 0.0 | 0.0 | 0.00 | 0.76 | 0.76 | 76 | 1010.4 |
| 20260503051808 | 17 | 0 | 0.0 | 0.0 | 0.00 | 0.76 | 0.76 | 76 | 1010.3 |